User: anonymous   Login
Location: Bergen
(60.3910°N, 5.3250°E)
Time: 01:28:15
(UTC+01:00)
Language:

Cosmos 1943 - Orbit

View from above orbital plane
View from above orbital plane
View from above satellite
View from above satellite

Ground track
Ground track

The orbit data is extracted from the following two-line orbital elements,

1 19119U 88039A   16043.15987488 -.00000102  00000-0 -28103-4 0  9996
2 19119  71.0021  52.9096 0009125  83.6826 321.5276 14.15049357432638
Epoch (UTC): 12 February 2016 03:50:13
Eccentricity: 0.0009125
inclination: 71.0021°
perigee height: 835 km
apogee height: 849 km
right ascension of ascending node: 52.9096°
argument of perigee: 83.6826°
revolutions per day: 14.15049357
mean anomaly at epoch: 321.5276°
orbit number at epoch: 43263

The dashed part of the orbit path shows where the satellite is in the earth's shadow,  

DLR